Flag for Germany Weather past 2 weeks in Rottweil, Baden-Württemberg, Germany

Now
46 °F

Sunny.


Feels Like: 40 °F
Forecast: 26 / 58 °F
Wind: 14 mph from East

Location: Donaueschingen / Villingen


UV Index: 3 (Moderate)

Visibility: 10 mi


Pressure: 30.30 "Hg

Humidity: 43%

Dew point: 25 °F

Location of RottweilLocation

Historic Weather in Rottweil

°F

Rottweil temperature yesterday

Maximum temperature yesterday: 48 °F (at 3:20 PM)
Minimum temperature yesterday: 37 °F (at 8:20 AM)
Average temperature yesterday: 43 °F

Past Weeks' High & Low Weather Summary

 TemperatureHumidityPressure
High66 °F (Apr 2, 2:20 PM)100% (Apr 2, 7:50 AM)30.30 "Hg (Apr 2, 7:50 AM)
Low30 °F (Apr 16, 8:20 AM)27% (Apr 13, 3:20 PM)29.68 "Hg (Apr 3, 5:20 PM)
Average53 °F62%30.04 "Hg
* Reported Apr 1 5:50 PM — Apr 16 5:50 PM, Rottweil, Weather by CustomWeather, © 2014

Note: Actual official high and low records may vary slightly from our data, if they occured in-between our weather recording intervals... More about our weather records

Advertising

Historic Weather Conditions — Data for Previous 24 hours

 ConditionsComfort  
Time TempWeatherWind HumidityBarometerVisibility
5:50 PM
Apr 16
46 °FSunny.14 mph43%30.30 "Hg10 mi
5:20 PM46 °FSunny.15 mph43%30.30 "Hg10 mi
4:50 PM48 °FSunny.13 mph40%30.30 "Hg10 mi
4:20 PM50 °FPassing clouds.12 mph43%30.30 "HgN/A
3:50 PM48 °FSunny.14 mph43%30.30 "Hg10 mi
3:20 PM48 °FPassing clouds.13 mph40%30.30 "HgN/A
2:50 PM50 °FScattered clouds.14 mph40%30.30 "HgN/A
2:20 PM46 °FScattered clouds.12 mph43%30.30 "HgN/A
1:50 PM46 °FScattered clouds.12 mph43%30.30 "HgN/A
12:20 PM46 °FScattered clouds.10 mph46%30.30 "HgN/A
11:50 AM45 °FScattered clouds.12 mph53%30.30 "HgN/A
11:20 AM43 °FScattered clouds.12 mph53%30.30 "HgN/A
10:50 AM43 °FScattered clouds.14 mph57%30.30 "HgN/A
10:20 AM41 °FPassing clouds.12 mph61%30.30 "HgN/A
9:50 AM39 °FPassing clouds.12 mph65%30.30 "HgN/A
9:20 AM39 °FPassing clouds.6 mph70%30.30 "HgN/A
8:50 AM34 °FPassing clouds.3 mph87%30.30 "HgN/A
8:20 AM30 °FSunny.7 mph93%30.30 "Hg10 mi
7:50 PM
Apr 15
41 °FPartly sunny.10 mph49%30.21 "HgN/A
Weather by CustomWeather, © 2014

See weather overview